This is the latest recevied weather packets stored in our database for station/object KI5GCD-13. If no packets are shown the sender has not sent any weather packets the latest 10 day(s).
| Time | Temp. | Humidity | Pressure | Rain* | Wind** | Luminosity | Snow |
|---|---|---|---|---|---|---|---|
| 1777679687 | 17.22° C | 38% | 1013.2 hPa | 0 mm | 0.45 m/s, 260° | - | - |
| 1777679387 | 17.22° C | 38% | 1013 hPa | 0 mm | 1.34 m/s, 5° | - | - |
| 1777679088 | 17.22° C | 37% | 1013.1 hPa | 0 mm | 0.89 m/s, 139° | - | - |
| 1777678787 | 17.22° C | 38% | 1013.2 hPa | 0 mm | 1.79 m/s, 119° | - | - |
| 1777678487 | 17.22° C | 38% | 1013.1 hPa | 0 mm | 0.45 m/s, 71° | - | - |
| 1777678187 | 17.22° C | 39% | 1013.3 hPa | 0 mm | 0.89 m/s, 67° | - | - |
| 1777677887 | 17.22° C | 37% | 1013 hPa | 0 mm | 0.89 m/s, 155° | - | - |
| 1777677587 | 17.22° C | 36% | 1013.1 hPa | 0 mm | 1.34 m/s, 67° | - | - |
| 1777677287 | 17.78° C | 36% | 1013.1 hPa | 0 mm | 1.34 m/s, 353° | - | - |
| 1777676987 | 17.78° C | 35% | 1013.1 hPa | 0 mm | 1.34 m/s, 266° | - | - |
| 1777676687 | 17.78° C | 38% | 1013.3 hPa | 0 mm | 0.89 m/s, 284° | - | - |
| 1777676387 | 17.78° C | 38% | 1013 hPa | 0 mm | 1.34 m/s, 332° | - | - |
| 1777676087 | 17.78° C | 35% | 1013 hPa | 0 mm | 1.79 m/s, 40° | - | - |
| 1777675787 | 17.78° C | 34% | 1013.1 hPa | 0 mm | 1.34 m/s, 285° | - | - |
| 1777675487 | 17.78° C | 35% | 1013 hPa | 0 mm | 1.79 m/s, 13° | - | - |
| 1777675187 | 18.33° C | 37% | 1012.9 hPa | 0 mm | 1.34 m/s, 339° | - | - |
| 1777674887 | 18.33° C | 37% | 1013.1 hPa | 0 mm | 0.45 m/s, 263° | - | - |
| 1777674588 | 18.33° C | 34% | 1012.9 hPa | 0 mm | 1.79 m/s, 10° | - | - |
| 1777674289 | 18.33° C | 37% | 1012.8 hPa | 0 mm | 1.79 m/s, 33° | - | - |
| 1777673989 | 18.33° C | 34% | 1013 hPa | 0 mm | 0.89 m/s, 201° | - | - |
| 1777673687 | 18.33° C | 33% | 1012.8 hPa | 0 mm | 2.24 m/s, 346° | - | - |
| 1777673387 | 18.33° C | 32% | 1012.7 hPa | 0 mm | 4.02 m/s, 60° | - | - |
| 1777673087 | 18.89° C | 34% | 1012.6 hPa | 0 mm | 1.34 m/s, 175° | - | - |
| 1777672787 | 18.89° C | 33% | 1012.6 hPa | 0 mm | 1.79 m/s, 5° | - | - |
| 1777672487 | 18.33° C | 34% | 1012.4 hPa | 0 mm | 2.24 m/s, 29° | - | - |
* Rain latest hour (hover to see other rain measurements)
** Current wind speed in m/s (hover to see current wind gust speed)